[[{"header":{"parameterUnit":"m.s-1","parameterCategory":1,"la1":30.2991,"la2":30.254,"lo1":-89.0895,"lo2":-89.0444,"dy":0.0017,"dx":0.0017,"nx":28,"ny":28,"refTime":"2025-02-06T09:00:00:Z","depth":0,"parameterNumber":2,"parameterNumberName":"U-component_of_WINDS"},"data":[0,0,0,0,0,0,0,0,0,0,0,0,0,0,0,0,0,0,0,0,0,0,0,0,0,0,0,0,0,0,0,0,0,0,0,0,0,0,0,0,0,0,0,0,0,0,0,0,0,0,0,0,0,0,0,0,0,0,-1.0088,-1.0088,0,-1.0053,-1.0053,-1.0052,-1.0018,-1.0018,-1.0018,-1.0017,-0.998,-0.9979,-0.9978,0,0,0,0,0,0,0,0,0,0,0,0,0,-1.0124,-1.0124,-1.0088,-1.0088,-1.0087,-1.0053,-1.0053,-1.0052,-1.0018,-1.0018,-1.0017,-1.0017,-0.998,-0.9979,-0.9978,0,0,0,0,0,0,0,0,0,0,0,0,0,-1.0101,-1.0124,-1.0088,-1.0066,-1.0064,-1.0053,-1.0053,-1.0052,-1.0019,-1.0018,-1.0017,-1.0017,-0.998,-0.9979,-0.9978,-0.9986,0,0,-0.9975,-0.9975,0,0,0,0,0,0,0,0,-1.0102,-1.01,-1.007,-1.0068,-1.0065,-1.0039,-1.0052,-1.003,-1.0019,-1.0036,-1.0017,-1.0016,-1.0,-0.9997,-0.9992,-0.9984,-0.9982,-0.9975,-0.9975,-0.9974,-0.9974,0,0,0,0,0,0,0,-1.0104,-1.0101,-1.0074,-1.007,-1.0067,-1.0058,-1.0054,-1.0047,-1.0022,-1.0034,-1.0032,-1.0028,-0.9998,-0.9993,-0.9991,-0.9982,-0.9975,-0.9975,-0.9974,-0.9974,-0.9976,-0.9977,0,0,0,0,0,0,-1.0109,-1.0102,-1.0075,-1.0073,-1.0083,-1.0058,-1.0053,-1.0048,-1.0022,-1.0017,-1.0029,-1.0027,-0.9995,-0.9992,-0.9989,-0.9995,-0.9974,-0.9974,-0.9973,-0.9976,-0.9976,-0.9977,0,0,0,0,0,0,-1.011,-1.0107,-1.0077,-1.0087,-1.0083,-1.0058,-1.0053,-1.0048,-1.0043,-1.0018,-1.0013,-1.0028,-0.9994,-0.9991,-0.9987,-0.9993,-0.9973,-0.9972,-0.9975,-0.9976,-0.9977,-1.0008,0,0,0,0,0,0,-1.0111,-1.0107,-1.011,-1.0087,-1.0082,-1.0075,-1.0053,-1.0048,-1.0041,-1.0038,-1.0016,-1.0011,-0.9993,-0.9988,-0.9986,-0.9992,-0.9972,-0.9974,-0.9975,-0.9976,-1.0006,-1.0009,-1.0012,0,0,0,0,0,-1.0113,-1.012,-1.0111,-1.0108,-1.0085,-1.0076,-1.0072,-1.0052,-1.0042,-1.0044,-1.0028,-1.0012,-0.9994,-0.9988,-0.9985,-0.9991,-0.9974,-0.9975,-0.9976,-1.0004,-1.0009,-1.0012,0,0,0,0,0,0,-1.0144,-1.0117,-1.0106,-1.0107,-1.0094,-1.007,-1.0072,-1.0058,-1.0047,-1.0045,-1.002,-1.0015,-1.0013,-1.0002,-0.9996,-0.9996,-0.9981,-0.9982,-1.0003,-1.0007,-1.0011,-1.0013,-0.9971,0,0,0,0,0,-1.0152,-1.0146,-1.0123,-1.0125,-1.012,-1.0097,-1.0092,-1.0078,-1.0063,-1.0057,-1.0041,-1.0027,-1.0018,-1.0012,-1.0002,-1.0004,-0.9998,-1.0007,-1.001,-1.0013,-1.0014,-1.0013,-1.0016,-0.9982,-0.9982,-0.9982,0,0,-1.0166,-1.0151,-1.0149,-1.0131,-1.012,-1.0114,-1.0093,-1.0088,-1.0083,-1.0056,-1.0051,-1.0039,-1.0021,-1.002,-1.0019,-1.001,-1.0022,-1.0015,-1.0018,-1.0016,-1.0014,-1.0018,-1.0021,-0.9983,-0.9982,-0.9982,0,0,-1.0189,-1.0178,-1.0178,-1.0167,-1.015,-1.0135,-1.0135,-1.0113,-1.0104,-1.0099,-1.0078,-1.0072,-1.0058,-1.0045,-1.0038,-1.0057,-1.0041,-1.0054,-1.0071,-1.007,-1.0073,-1.0075,-1.0081,-1.0083,-1.0055,-1.0055,-1.0055,0,-1.0209,-1.0201,-1.018,-1.0177,-1.0169,-1.0145,-1.0145,-1.0135,-1.0116,-1.0111,-1.0102,-1.0082,-1.0069,-1.0064,-1.0069,-1.0064,-1.0062,-1.0056,-1.0075,-1.0077,-1.0078,-1.0083,-1.0085,-1.0057,-1.0057,-1.0056,-1.0056,0,-1.0226,-1.022,-1.0222,-1.0204,-1.0197,-1.0195,-1.0174,-1.0169,-1.0156,-1.0142,-1.0136,-1.0119,-1.0105,-1.0103,-1.009,-1.0096,-1.0092,-1.0079,-1.0063,-1.0084,-1.0088,-1.0089,-1.0059,-1.0059,-1.0058,-1.0058,0,0,-1.0267,-1.0238,-1.0239,-1.023,-1.0209,-1.0204,-1.0201,-1.0188,-1.0184,-1.0171,-1.0167,-1.0155,-1.0143,-1.0134,-1.0119,-1.0119,-1.0134,-1.0106,-1.0106,-1.0111,-1.0138,-1.0146,-1.0149,-1.0124,-1.0124,-1.0124,-1.0139,0,-1.0286,-1.0279,-1.026,-1.0259,-1.0253,-1.023,-1.0227,-1.0214,-1.0201,-1.0193,-1.0178,-1.017,-1.0156,-1.015,-1.0148,-1.0132,-1.0138,-1.0131,-1.0118,-1.0118,-1.0122,-1.0151,-1.016,-1.0174,-1.014,-1.0141,-1.0141,0,-1.0306,-1.0295,-1.0293,-1.0272,-1.0269,-1.0267,-1.0253,-1.0246,-1.023,-1.0221,-1.0211,-1.0195,-1.0189,-1.0176,-1.0167,-1.0162,-1.0156,-1.0147,-1.0148,-1.0144,-1.013,-1.0147,-1.0179,-1.018,-1.0143,-1.0143,-1.0143,0,-1.0335,-1.032,-1.0316,-1.031,-1.0286,-1.0284,-1.0274,-1.0258,-1.0251,-1.0238,-1.0233,-1.0221,-1.0214,-1.0204,-1.0184,-1.0176,-1.0177,-1.0162,-1.0168,-1.0168,-1.0168,-1.0168,-1.0197,-1.0166,-1.0166,-1.0166,-1.0166,0,-1.0357,-1.0356,-1.0329,-1.0327,-1.0325,-1.0304,-1.0302,-1.029,-1.0276,-1.027,-1.025,-1.0245,-1.022,-1.0212,-1.0196,-1.0191,-1.0188,-1.0179,-1.0175,-1.018,-1.0181,-1.0175,-1.0173,-1.0167,-1.0167,-1.0167,-1.0167,0,-1.0388,-1.037,-1.0364,-1.0342,-1.0336,-1.0336,-1.0317,-1.0313,-1.0299,-1.0292,-1.0289,-1.0267,-1.0256,-1.0236,-1.0219,-1.0209,-1.0206,-1.02,-1.0212,-1.0209,-1.0215,-1.0214,-1.024,-1.0242,-1.0211,-1.0211,-1.0212,0,-1.0403,-1.0401,-1.0379,-1.0374,-1.0365,-1.0357,-1.035,-1.0329,-1.0322,-1.0304,-1.0303,-1.0291,-1.028,-1.0264,-1.0245,-1.0232,-1.0224,-1.0234,-1.0222,-1.0227,-1.0222,-1.0222,-1.0221,-1.0236,-1.0237,-1.0237,-1.0238,0,-1.043,-1.0421,-1.0412,-1.0399,-1.0391,-1.0381,-1.0369,-1.0365,-1.0342,-1.0335,-1.0324,-1.0316,-1.0299,-1.0287,-1.0271,-1.026,-1.0244,-1.0242,-1.0242,-1.0247,-1.0253,-1.0248,-1.0218,-1.0241,-1.0241,-1.024,-1.024,-1.024,-1.0452,-1.045,-1.0433,-1.0424,-1.0413,-1.0402,-1.0397,-1.0383,-1.0373,-1.0358,-1.0347,-1.0336,-1.032,-1.0297,-1.0287,-1.0278,-1.0271,-1.0272,-1.0271,-1.0272,-1.0273,-1.0256,-1.0275,-1.0275,-1.0275,-1.0275,-1.0275,0,-1.0477,-1.0465,-1.0457,-1.0441,-1.0433,-1.042,-1.0406,-1.04,-1.0392,-1.0378,-1.0368,-1.0355,-1.0343,-1.0323,-1.031,-1.0306,-1.0299,-1.0303,-1.0302,-1.03,-1.0281,-1.0282,-1.0309,-1.0309,-1.0309,-1.0309,-1.0309,-1.0309,-1.0489,-1.0484,-1.0473,-1.0462,-1.0451,-1.0441,-1.0434,-1.0423,-1.0412,-1.0399,-1.0389,-1.0377,-1.036,-1.0345,-1.0333,-1.0328,-1.0323,-1.0329,-1.0322,-1.0304,-1.0301,-1.0298,-1.0298,-1.0329,-1.0329,-1.0341,-1.0341,-1.0341]},{"header":{"parameterUnit":"m.s-1","parameterCategory":1,"la1":30.2991,"la2":30.254,"lo1":-89.0895,"lo2":-89.0444,"dy":0.0017,"dx":0.0017,"nx":28,"ny":28,"refTime":"2025-02-06T09:00:00:Z","depth":0,"parameterNumber":3,"parameterNumberName":"V-component_of_WINDS"},"data":[0,0,0,0,0,0,0,0,0,0,0,0,0,0,0,0,0,0,0,0,0,0,0,0,0,0,0,0,0,0,0,0,0,0,0,0,0,0,0,0,0,0,0,0,0,0,0,0,0,0,0,0,0,0,0,0,0,0,2.9958,2.9959,0,3.0069,3.0071,3.0072,3.0097,3.0096,3.0095,3.0095,3.0207,3.0211,3.0214,0,0,0,0,0,0,0,0,0,0,0,0,0,2.9765,2.9769,2.9958,2.9959,2.9961,3.0069,3.0071,3.0072,3.0097,3.0096,3.0095,3.0094,3.0206,3.021,3.0215,0,0,0,0,0,0,0,0,0,0,0,0,0,2.986,2.977,2.9957,2.9986,2.999,3.0069,3.0071,3.0073,3.0097,3.0096,3.0095,3.0094,3.0204,3.021,3.0215,3.0273,0,0,3.0232,3.0235,0,0,0,0,0,0,0,0,2.9854,2.9867,2.998,2.9984,2.9989,3.0068,3.0044,3.014,3.0098,3.0056,3.0095,3.0093,3.0162,3.0171,3.0194,3.0279,3.0283,3.0233,3.0236,3.0239,3.024,0,0,0,0,0,0,0,2.9848,2.9862,3.0002,2.9982,2.9987,2.9993,3.0005,3.0062,3.0114,3.006,3.0062,3.0075,3.0164,3.0189,3.0197,3.0285,3.0233,3.0238,3.0241,3.0243,3.0424,3.0426,0,0,0,0,0,0,2.9836,2.9857,2.9998,3.0005,2.9917,2.9997,3.0011,3.0044,3.0114,3.0123,3.0076,3.0076,3.018,3.019,3.0201,3.0275,3.0239,3.0244,3.0247,3.0423,3.0425,3.0426,0,0,0,0,0,0,2.9832,2.9849,2.9994,2.9932,2.9951,3.0002,3.0038,3.0047,3.0072,3.0126,3.0135,3.0092,3.0179,3.0193,3.0256,3.0279,3.0246,3.0251,3.0421,3.0423,3.0425,3.0423,0,0,0,0,0,0,2.9827,2.9847,2.987,2.9932,2.9954,3.0047,3.004,3.005,3.0082,3.0082,3.0143,3.0152,3.0179,3.0247,3.0261,3.0286,3.0256,3.0419,3.0422,3.0425,3.0421,3.0425,3.0428,0,0,0,0,0,2.982,2.9864,2.9871,2.9888,2.9983,3.0048,3.0061,3.0092,3.0083,3.0107,3.0142,3.015,3.0274,3.0253,3.0269,3.0297,3.0418,3.0421,3.0424,3.0419,3.0424,3.0428,0,0,0,0,0,0,2.9803,2.9873,2.9881,2.9947,2.9992,3.0052,3.0083,3.0095,3.0142,3.0141,3.0176,3.019,3.0251,3.028,3.0255,3.0357,3.0346,3.0352,3.0336,3.0341,3.0344,3.0337,3.026,0,0,0,0,0,2.9807,2.9854,2.9912,2.9965,2.9987,3.0031,3.006,3.008,3.0128,3.0146,3.0186,3.0231,3.028,3.0312,3.036,3.0425,3.0439,3.0451,3.0455,3.0457,3.0463,3.0501,3.0507,3.0437,3.0437,3.0437,0,0,2.9815,2.9859,2.9887,2.9963,3.0,3.0048,3.0047,3.0097,3.0134,3.0154,3.0216,3.0246,3.0299,3.0364,3.0394,3.039,3.0485,3.0461,3.0463,3.0467,3.0505,3.0511,3.0517,3.0439,3.0439,3.0438,0,0,2.9856,2.9894,2.9943,2.998,3.0036,3.0065,3.0077,3.0136,3.0158,3.0221,3.0237,3.028,3.0364,3.0402,3.0432,3.0487,3.0498,3.0502,3.052,3.0556,3.0562,3.0567,3.0589,3.0596,3.0507,3.0507,3.0507,0,2.986,2.9934,2.9966,3.0017,3.005,3.0071,3.0121,3.0155,3.0224,3.0246,3.024,3.0347,3.0384,3.0458,3.0472,3.0495,3.051,3.0496,3.0559,3.0564,3.0569,3.059,3.0598,3.0507,3.0507,3.0507,3.0507,0,2.9937,2.9988,3.002,3.0087,3.0124,3.0174,3.0213,3.0246,3.0263,3.0292,3.0357,3.0402,3.046,3.0479,3.0495,3.0556,3.0552,3.0552,3.0541,3.0576,3.0596,3.0604,3.0508,3.0508,3.0508,3.0508,0,0,2.9971,3.0056,3.0067,3.0099,3.0162,3.0202,3.0253,3.0311,3.034,3.0386,3.043,3.0501,3.0502,3.0536,3.0556,3.0588,3.0631,3.0584,3.0586,3.0593,3.0703,3.0704,3.0712,3.0638,3.064,3.0641,3.0699,0,3.0021,3.0114,3.0144,3.0221,3.0269,3.029,3.0335,3.0379,3.0408,3.0452,3.0484,3.0534,3.0531,3.0552,3.0584,3.0619,3.0654,3.0615,3.068,3.0682,3.0668,3.0723,3.0724,3.0776,3.0707,3.0708,3.0709,0,3.0092,3.0141,3.0223,3.0283,3.0304,3.0343,3.04,3.0442,3.0492,3.0511,3.055,3.0568,3.0622,3.0607,3.0682,3.0655,3.0683,3.0705,3.0707,3.0716,3.0699,3.0734,3.0794,3.0802,3.0722,3.0721,3.072,0,3.0111,3.0197,3.0258,3.0284,3.0354,3.0382,3.0412,3.0461,3.0494,3.0543,3.0565,3.0619,3.0649,3.069,3.0722,3.0708,3.0795,3.0783,3.0813,3.0813,3.0832,3.0831,3.0898,3.0847,3.0847,3.0847,3.0847,0,3.0165,3.0215,3.0268,3.0306,3.0362,3.0397,3.0452,3.0483,3.0526,3.0571,3.0591,3.0631,3.0671,3.0717,3.0742,3.0802,3.0814,3.0832,3.0838,3.0831,3.0829,3.0851,3.0849,3.0849,3.0848,3.0848,3.0848,0,3.0197,3.0234,3.0302,3.0363,3.038,3.0419,3.0471,3.0508,3.0538,3.0593,3.0608,3.0655,3.071,3.0746,3.0816,3.0833,3.0899,3.0903,3.0882,3.0886,3.0915,3.0912,3.1001,3.1015,3.0952,3.0952,3.0953,0,3.023,3.0269,3.0334,3.0366,3.0397,3.0446,3.0481,3.0516,3.0551,3.0611,3.0642,3.0698,3.0746,3.0833,3.0873,3.0927,3.0934,3.0961,3.0942,3.0934,3.0937,3.0935,3.0939,3.0965,3.0965,3.0966,3.0966,0,3.0285,3.0302,3.0351,3.0407,3.0448,3.0493,3.0539,3.0563,3.0606,3.0644,3.0702,3.0738,3.0811,3.0867,3.0925,3.0955,3.0968,3.0971,3.0982,3.0976,3.0963,3.0972,3.0893,3.097,3.0969,3.0969,3.0969,3.0969,3.032,3.0356,3.0408,3.0463,3.0501,3.0543,3.0582,3.0617,3.0665,3.0728,3.0745,3.0805,3.0855,3.0934,3.0966,3.1013,3.101,3.1024,3.1028,3.1032,3.1033,3.0954,3.1023,3.1023,3.1023,3.1023,3.1023,0,3.0378,3.0412,3.0462,3.0526,3.0569,3.0577,3.0628,3.0664,3.0717,3.0762,3.0809,3.0875,3.093,3.0974,3.1031,3.106,3.1068,3.1074,3.1073,3.1081,3.1032,3.1018,3.1068,3.1068,3.1068,3.1068,3.1068,3.1068,3.0413,3.0476,3.0499,3.058,3.0615,3.0675,3.0703,3.0742,3.0779,3.0853,3.0899,3.0928,3.0973,3.1033,3.1084,3.1096,3.1116,3.1122,3.1135,3.1089,3.1084,3.1079,3.1067,3.1126,3.1126,3.118,3.1181,3.1181]}]]